ASTRA 5B

Last updated on Thu Sep 10 2026 00:02:58 GMT+0000 (Coordinated Universal Time)

1 39617U 14011B 26252.23387207 .00000116 00000+0 00000+0 0 9998 2 39617 0.1105 291.5691 0003170 260.6958 263.7208 1.00273740 45512
UTC large
Height (km)
Speed (km/s)
/
Latitude / Longitude
Inclination (degrees)
Orbital Period (minutes)
Azimuth
Elevation
Range (km)
Doppler Factor

Next 0 passes for location: London (51.5072 / 0.1276)

No passes found over London.
ASTRA 5B